Regional Weather Roundup
Issued by NWS

Home | Current Version | Previous Version | Text Only | Print | Product List | Glossary On
Versions: 1 2 3 4 5 6 7 8 9 10 11 12 13 14 15 16 17 18 19 20 21 22 23 24 25 26 27 28 29 30 31 32 33 34 35 36 37 38 39 40 41 42 43 44 45 46 47 48 49 50
000
ASUS42 KFFC 092110
RWRGA
WEATHER ROUNDUP FOR GEORGIA
NATIONAL WEATHER SERVICE PEACHTREE CITY GA
400 PM EST FRI DEC 09 2016

NOTE: "FAIR" INDICATES FEW OR NO CLOUDS BELOW 12,000 FEET WITH NO
SIGNIFICANT WEATHER AND/OR OBSTRUCTIONS TO VISIBILITY.

* = USE WITH CAUTION. THE STATIONS MARKED WITH AN ASTERISK MAY NOT
REPORT WEATHER SUCH AS PRECIPITATION, FOG, OR THUNDER AND ARE NOT
QUALITY CONTROLLED BY NWS.

THE REMARK "TC" DENOTES TEMPERATURE READING IN DEGREES CELSIUS.

GAZ001>058-092200-
NORTH GEORGIA

CITY           SKY/WX    TMP DP  RH WIND       PRES   REMARKS
ATLANTA        SUNNY     42  14  32 NW10      30.41R
ATHENS         SUNNY     47  15  27 CALM      30.38R
CHAMBLEE       SUNNY     41  15  35 NW13G21   30.41R
PEACHTREE CITY SUNNY     43  15  32 N15       30.43R
ROME           SUNNY     40  15  36 N13       30.47S WCI  32
WEST ATLANTA   SUNNY     42  14  32 NW14      30.43R
GAINESVILLE    SUNNY     43  12  28 NW12      30.38R
CARTERSVILLE   SUNNY     40  16  37 MISG      30.47R


CITY           SKY/WX    TMP DP  RH WIND       PRES   REMARKS
DALTON*        SUNNY     36  19  51 N6        30.48S WCI  31
MARIETTA       SUNNY     41  14  33 NW16      30.42R
KENNESAW*      SUNNY     39  14  35 N7G18       N/A  WCI  34
CANTON*        SUNNY     37  10  32 W14       30.43R WCI  29
$$

GAZ059>098-102>109-092200-
CENTRAL GEORGIA

CITY           SKY/WX    TMP DP  RH WIND       PRES   REMARKS
AUGUSTA-BUSH   SUNNY     51  15  23 N9        30.38S
AUGUSTA-DANIEL SUNNY     49  14  24 N7        30.38S
COLUMBUS       SUNNY     48  12  23 N10       30.41R
MACON          SUNNY     50  15  24 N9        30.39R
ROBINS AFB     SUNNY     50  15  24 N9        30.39R


CITY           SKY/WX    TMP DP  RH WIND       PRES   REMARKS
LAGRANGE*      SUNNY     46  19  34 N6        30.42S
SYLVANIA*      SUNNY    N/A N/A N/A NE9       30.38S
MILLEDGEVILLE* SUNNY     48  23  37 NW3       30.39R
$$

GAZ099>101-110>166-092200-
SOUTH GEORGIA

CITY           SKY/WX    TMP DP  RH WIND       PRES   REMARKS
SAVANNAH       SUNNY     52  16  24 N7        30.37R
VALDOSTA       SUNNY     54  11  18 N9        30.36R
ALMA           SUNNY     52  18  26 N6        30.36S
ST SIMONS      SUNNY     56  19  23 N6        30.35R
FT STEWART     SUNNY     52  18  26 NW6       30.34S
ALBANY         SUNNY     53  14  21 N7        30.41R
HUNTER AFB     SUNNY     53  26  34 NW7       30.34R
MOODY AFB      SUNNY     53  15  22 N9        30.35R
BRUNSWICK      SUNNY     55  28  35 N6        30.36R


CITY           SKY/WX    TMP DP  RH WIND       PRES   REMARKS
BAINBRIDGE*    SUNNY     52  18  25 N7        30.40R
MOULTRIE*      SUNNY     52  18  25 N5        30.38R
VIDALIA*       SUNNY     52  27  37 NW7       30.37S
WAYCROSS*      SUNNY     56  26  31 N8        30.36R
$$



USA.gov is the U.S. government's official web portal to all federal, state and local government web resources and services.